RESOURCESAT-2

Last updated on Wed Oct 29 2025 00:02:30 GMT+0000 (Coordinated Universal Time)

1 37387U 11015A 25301.59962566 .00000211 00000+0 11661-3 0 9996 2 37387 98.7934 5.3413 0006366 156.0247 204.1227 14.21592375753273
UTC large
Height (km)
Speed (km/s)
/
Latitude / Longitude
Inclination (degrees)
Orbital Period (minutes)
Azimuth
Elevation
Range (km)
Doppler Factor

Next 0 passes for location: London (51.5072 / 0.1276)

Sorry there are no passes over London.